Regional Weather Roundup
Issued by NWS Charleston, SC

Current Version | Previous Version | Graphics & Text | Print | Product List | Glossary On
Versions: 1 2 3 4 5 6 7 8 9 10 11 12 13 14 15 16 17 18 19 20 21 22 23 24 25 26 27 28 29 30 31 32 33 34 35 36 37 38 39 40 41 42 43 44 45 46 47 48 49 50
831 ASUS42 KCHS 280812 RWRCHS REGIONAL WEATHER ROUNDUP NATIONAL WEATHER SERVICE CHARLESTON SC 400 AM EDT WED JUN 28 2017 NOTE: "FAIR" INDICATES FEW OR NO CLOUDS BELOW 12,000 FEET WITH NO SIGNIFICANT WEATHER AND/OR OBSTRUCTIONS TO VISIBILITY. NOT ALL STATIONS ARE QUALITY CONTROLLED. USE DATA WITH CAUTION... ESPECIALLY DEWPOINT OBSERVATIONS. SCZ027-030-031-034>040-042>050-280900- ...SOUTHEAST SOUTH CAROLINA... CITY SKY/WX TMP DP RH WIND PRES REMARKS N CHARLESTON CLOUDY 69 66 90 N3 30.07S WATERFRONT PRK N/A 77 70 79 N6 30.04F JOHNS ISLAND NOT AVBL PINOPOLIS N/A 77 72 83 NE8 30.00S MONCKS CORNER NOT AVBL SUMMERVILLE NOT AVBL BEAUFORT MCAS CLOUDY 75 71 87 N6 30.07R BEAUFORT ARPT NOT AVBL HILTON HEAD IS NOT AVBL WALTERBORO NOT AVBL ALLENDALE NOT AVBL ...SOUTHERN MIDLANDS AND PEE DEE... CITY SKY/WX TMP DP RH WIND PRES REMARKS GEORGETOWN NOT AVBL KINGSTREE NOT AVBL ORANGEBURG PTCLDY 70 64 81 NE6 30.10R BARNWELL NOT AVBL AIKEN NOT AVBL MANNING NOT AVBL COLUMBIA PTCLDY 72 59 63 CALM 30.10R SUMTER CLEAR 65 60 83 NE5 30.08S FLORENCE CLEAR 66 58 75 NE6 30.11R MYRTLE BEACH CLEAR 71 62 73 NE9 30.10 N MYRTLE BEACH CLEAR 69 63 81 NE7 30.09R $$ GAZ063-065-086>088-099>101-113>116-118-119-134>141-150-280900- ...SOUTHEAST GEORGIA... CITY SKY/WX TMP DP RH WIND PRES REMARKS SAVANNAH ARPT PTCLDY 72 69 90 N5 30.07R HUNTER AAF CLOUDY 71 69 93 CALM 30.04R FORT STEWART PTCLDY 70 67 93 CALM 30.04S STATESBORO CLOUDY 71 32 23 CALM 30.07S SYLVANIA MOSUNNY 71 71 100 CALM 30.08F CLAXTON FAIR 68 67 98 CALM 30.07S ...CSRA...CENTRAL AND FAR SOUTHEAST GEORGIA... CITY SKY/WX TMP DP RH WIND PRES REMARKS THOMSON CLOUDY 65 62 93 CALM 30.14S AUGUSTA-BUSH CLOUDY 68 66 93 S3 30.07S AUGUSTA-DANIEL CLOUDY 73 66 78 E5 30.09S SWAINSBORO FAIR 68 68 100 CALM 30.08F VIDALIA MOCLDY 72 70 94 CALM 30.07S EASTMAN N/A 69 69 100 CALM 30.09S FOG HAZLEHURST FAIR 71 71 100 CALM 30.05S ALMA CLEAR 68 66 93 CALM 30.05S FOG WAYCROSS MOCLDY 72 72 100 CALM 30.06R JESUP FAIR 70 64 83 CALM 30.06S BAXLEY FAIR 70 70 100 CALM 30.06R BRUNSWICK CLOUDY 70 70 100 CALM 30.06S SAINT SIMONS PTCLDY 74 72 93 N6 30.04S $$ SCZ027-028-034-036>038-045-046-048>050-GAZ119-141-280900- ...LAKE AND SUPPLEMENTAL COASTAL OBSERVATIONS... STATION/POSITION TIME TEMP WIND PRES WAVE SWELL AIR SEA DIR/SP/G HT/PER HT/PER/DIR (UTC) (F) (DEG/KT/KT) (MB) (FT/S) (FT/S/D) WINYAH BAY NOT AVBL LAKE MURRAY 0720 72 80/ 2/ 5 1018.6R ACE BASIN NERRS 0645 73 CALM 1018.0 FORT PULASKI 0742 77 83 20/ 5/ 6 1018.0R SAPELO ISLAND 0700 75 360/ 5 1017.0 $$ ANZ835-935-AMZ111-154-330-350-352-354-370-450-454-472-280900- ...C-MAN AND BUOY OBSERVATIONS... STATION/POSITION TIME TEMP WIND PRES WAVE SWELL AIR SEA DIR/SP/G HT/PER HT/PER/DIR (UTC) (F) (DEG/KT/KT) (MB) (FT/S) (FT/S/D) BUOY 41004 0750 79 81 20/ 8/ 12 1017.4F 2/ 8 2/110/ 8 BUOY 41008 0650 79 82 30/ 4/ 4 1017.0 1/ 6 2/120/ 6 FOLLY BEACH CMAN 0700 77 350/ 5/ 6 1018.6S CAPERS NEARSHORE 0708 84 83 10/ 6/ 8 1018.0R FRIPP NEARSHORE 0708 80 83 40/ 6/ 8 1017.4F STATION/POSITION TIME TEMP WIND PRES WAVE SWELL AIR SEA DIR/SP/G HT/PER HT/PER/DIR (UTC) (F) (DEG/KT/KT) (MB) (FT/S) (FT/S/D) 5E ST. MARYS GA 0730 80 N/A 2/ 5 FRYING PAN BUOY 0750 79 80 350/ 10/ 12 1017.9F 2/ 7 2/120/ 7 BUOY 41025 0750 77 81 360/ 14/ 16 1017.9R 2/ 3 2/140/ 7 CAPE LOOKOUT NC 0700 75 360/ 12/ 14 1018.1R BUOY 41002 0750 79 80 220/ 6/ 8 1017.2R 3/ 5 3/190/ 5 BUOY 41010 0750 82 83 180/ 8/ 12 1015.5F 2/ 7 2/120/ 7 ST AUGUSTINE FL 0800 78 79 30/ 7/ 8 1016.7S $$

USA.gov is the U.S. government's official web portal to all federal, state and local government web resources and services.